Estherville, IA

3:09 PM CDT on August 28, 2016 (GMT -0500)
Estherville Municipal

Weather History for KEST - March, 2012

Change the Weather History Date:

Monday, March 12, 2012

  Actual Average Record
Temperature  
Mean Temperature 48 °F 31 °F  
Max Temperature 59 °F 39 °F 67 °F (2015)
Min Temperature 37 °F 22 °F -10 °F (1956)
Degree Days  
Heating Degree Days 17 34  
Month to date heating degree days 361 441  
Since 1 July heating degree days 5454 6356  
Cooling Degree Days 0 0  
Month to date cooling degree days 0 0  
Year to date cooling degree days 0 0  
Moisture  
Dew Point 44 °F    
Average Humidity 84    
Maximum Humidity 100    
Minimum Humidity 67    
Precipitation  
Precipitation 0.15 in 0.03 in 1.06 in (1977)
Month to date precipitation 0.36 0.34  
Year to date precipitation 2.28  
Sea Level Pressure  
Sea Level Pressure 29.69 in    
Wind  
Wind Speed 11 mph (SSW)    
Max Wind Speed 22 mph    
Max Gust Speed 25 mph    
Visibility 5 miles    
Events Fog , Rain    
T = Trace of Precipitation, MM = Missing Value Source: NWS Daily Summary

Daily Weather History Graph

Daily Weather History Graph

Search for Another Location

Airport or City:

Trip Planner

Search our weather history database for the weather conditions in past years. The results will help you decide how hot, cold, wet, or windy it might be!

Date:

Astronomy

Mar. 12, 2012 Rise Set
Actual Time 7:35 AM CDT 7:22 PM CDT
Civil Twilight 7:07 AM CDT 7:50 PM CDT
Nautical Twilight 6:33 AM CDT 8:23 PM CDT
Astronomical Twilight 6:00 AM CDT 8:57 PM CDT
Moon No Moon Rise 9:47 AM CDT (3/12)
Length of Visible Light 12h 43m
Length of Day
11h 46m
Waning Gibbous, 76% of the Moon is Illuminated
Mar 12
Waning Gibbous
Mar 14
Last Quarter
Mar 22
New
Mar 30
First Quarter
Apr 6
Full

Hourly Weather History & Observations

Time (CDT) Temp. Windchill Dew Point Humidity Pressure Visibility Wind Dir Wind Speed Gust Speed Precip Events Conditions
12:05 AM 44.6 °F 41.4 °F 44.6 °F 100% 29.72 in 2.5 mi SSE 5.8 mph - N/A   Overcast
12:25 AM 44.6 °F 40.7 °F 44.6 °F 100% 29.71 in 1.5 mi SSE 6.9 mph - N/A   Overcast
12:49 AM 44.6 °F 40.2 °F 44.6 °F 100% 29.70 in 0.8 mi South 8.1 mph - N/A   Overcast
12:52 AM 45.0 °F 40.6 °F 45.0 °F 100% 29.72 in 0.8 mi South 8.1 mph - N/A   Overcast
1:12 AM 44.6 °F 40.7 °F 44.6 °F 100% 29.70 in 0.8 mi South 6.9 mph - N/A   Overcast
1:52 AM 44.1 °F 40.8 °F 44.1 °F 100% 29.69 in 0.2 mi South 5.8 mph - N/A Fog Fog
2:45 AM 42.8 °F 39.3 °F 42.8 °F 100% 29.67 in 0.2 mi South 5.8 mph - N/A Fog Fog
2:52 AM 44.1 °F 40.1 °F 44.1 °F 100% 29.68 in 0.5 mi South 6.9 mph - N/A Fog Fog
3:27 AM 42.8 °F 39.3 °F 42.8 °F 100% 29.65 in 1.2 mi South 5.8 mph - N/A   Overcast
3:32 AM 44.6 °F 40.7 °F 42.8 °F 93% 29.65 in 3.0 mi South 6.9 mph - N/A   Overcast
3:43 AM 42.8 °F 38.6 °F 42.8 °F 100% 29.65 in 3.0 mi South 6.9 mph - N/A   Overcast
3:52 AM 43.0 °F 39.5 °F 43.0 °F 100% 29.66 in 3.0 mi South 5.8 mph - 0.00 in Rain Light Rain
4:22 AM 42.8 °F 38.0 °F 42.8 °F 100% 29.64 in 1.8 mi South 8.1 mph - 0.05 in Rain Heavy Rain
4:52 AM 44.1 °F 39.5 °F 43.0 °F 96% 29.65 in 2.5 mi South 8.1 mph - 0.08 in Rain Light Rain
5:05 AM 44.6 °F 40.2 °F 42.8 °F 93% 29.63 in 2.5 mi South 8.1 mph - 0.01 in Rain Light Rain
5:27 AM 42.8 °F 39.3 °F 42.8 °F 100% 29.63 in 3.0 mi SSW 5.8 mph - 0.03 in Rain Light Rain
5:32 AM 42.8 °F 39.3 °F 42.8 °F 100% 29.63 in 2.5 mi SSW 5.8 mph - 0.03 in Rain Light Rain
5:47 AM 44.6 °F 41.4 °F 42.8 °F 93% 29.63 in 1.8 mi South 5.8 mph - 0.04 in Rain Light Rain
5:52 AM 44.1 °F 40.8 °F 43.0 °F 96% 29.64 in 1.8 mi SSW 5.8 mph - 0.04 in Rain Light Rain
6:18 AM 44.6 °F 40.7 °F 42.8 °F 93% 29.63 in 2.5 mi South 6.9 mph - 0.00 in Rain Light Rain
6:22 AM 44.6 °F 41.4 °F 42.8 °F 93% 29.63 in 3.0 mi South 5.8 mph - 0.00 in Rain Light Rain
6:34 AM 42.8 °F 39.3 °F 42.8 °F 100% 29.63 in 2.5 mi South 5.8 mph - 0.01 in Rain Light Rain
6:52 AM 43.0 °F 39.5 °F 43.0 °F 100% 29.65 in 3.0 mi South 5.8 mph - 0.01 in   Overcast
7:02 AM 42.8 °F 39.3 °F 42.8 °F 100% 29.63 in 2.5 mi South 5.8 mph - N/A   Overcast
7:52 AM 43.0 °F 39.5 °F 43.0 °F 100% 29.65 in 2.0 mi South 5.8 mph - N/A   Overcast
8:09 AM 42.8 °F 38.6 °F 42.8 °F 100% 29.64 in 3.0 mi South 6.9 mph - N/A   Overcast
8:52 AM 44.1 °F 40.1 °F 43.0 °F 96% 29.67 in 3.0 mi South 6.9 mph - N/A   Overcast
9:21 AM 44.6 °F 40.7 °F 42.8 °F 93% 29.66 in 2.5 mi South 6.9 mph - 0.01 in Rain Light Rain
9:32 AM 44.6 °F 40.7 °F 42.8 °F 93% 29.65 in 3.0 mi South 6.9 mph - 0.01 in Rain Light Rain
9:52 AM 45.0 °F 40.6 °F 44.1 °F 97% 29.67 in 4.0 mi SSW 8.1 mph - 0.02 in Rain Light Rain
10:52 AM 46.9 °F - 45.0 °F 93% 29.67 in 7.0 mi SSW 18.4 mph - 0.00 in   Overcast
11:01 AM 46.4 °F 39.8 °F 44.6 °F 93% 29.66 in 8.0 mi SSW 16.1 mph - N/A   Overcast
11:22 AM 46.4 °F 40.1 °F 44.6 °F 93% 29.66 in 9.0 mi SSW 15.0 mph - N/A   Overcast
11:52 AM 48.0 °F - 44.1 °F 86% 29.68 in 10.0 mi SW 18.4 mph - N/A   Overcast
12:08 PM 48.2 °F - 44.6 °F 87% 29.67 in 10.0 mi SW 18.4 mph - N/A   Overcast
12:52 PM 50.0 °F - 43.0 °F 77% 29.69 in 10.0 mi SW 16.1 mph - N/A   Overcast
1:52 PM 51.1 °F - 44.1 °F 77% 29.70 in 10.0 mi SW 17.3 mph - N/A   Overcast
2:52 PM 53.1 °F - 45.0 °F 74% 29.70 in 10.0 mi WSW 16.1 mph - N/A   Overcast
3:29 PM 53.6 °F - 46.4 °F 77% 29.69 in 10.0 mi SW 12.7 mph - N/A   Mostly Cloudy
3:41 PM 55.4 °F - 46.4 °F 72% 29.70 in 10.0 mi SW 15.0 mph 21.9 mph N/A   Mostly Cloudy
3:52 PM 55.0 °F - 46.0 °F 72% 29.71 in 10.0 mi WSW 18.4 mph - N/A   Mostly Cloudy
4:52 PM 57.9 °F - 48.0 °F 70% 29.72 in 8.0 mi WSW 18.4 mph - N/A   Mostly Cloudy
5:02 PM 57.2 °F - 48.2 °F 72% 29.71 in 8.0 mi WSW 13.8 mph 23.0 mph N/A   Partly Cloudy
5:52 PM 59.0 °F - 48.9 °F 69% 29.73 in 10.0 mi WSW 15.0 mph - N/A   Partly Cloudy
6:52 PM 57.0 °F - 48.9 °F 74% 29.78 in 10.0 mi West 12.7 mph - N/A   Clear
8:52 PM 50.0 °F - 44.1 °F 80% 29.87 in 10.0 mi NW 10.4 mph - N/A   Clear
9:52 PM 43.0 °F 38.8 °F 39.9 °F 89% 29.90 in 10.0 mi WNW 6.9 mph - N/A   Clear
10:52 PM 42.1 °F 38.4 °F 39.0 °F 89% 29.93 in 10.0 mi West 5.8 mph - N/A   Clear
11:52 PM 39.9 °F 36.7 °F 37.9 °F 93% 29.95 in 9.0 mi WSW 4.6 mph - N/A   Clear